星链-5249 (STARLINK-5249 )

导读

STARLINK-5249是美国SpaceX公司星链星座中的一颗卫星,于2022年10月28日发射。作为星链互联网星座组网卫星,它属于第二代批次,运行在近地轨道,依托相控阵通信技术与氪离子推进系统,为全球偏远地区提供低延迟高速互联网接入服务。Starlink星链计划计划部署数万颗卫星,该星已在轨稳定运行超3年,服务覆盖全球多数区域,助力全球宽带互联覆盖,SpaceX通过批量生产发射不断完善星座规模。

基本信息
目录编号:
54205
目录名称:
STARLINK-5249
国际标识:
2022-141BA
轨道中心:
EARTH
卫星名称:
星链-5249
卫星全名:
星链-5249 (STARLINK-5249 )
卫星状态:
在轨 (已飞行1407 天)
发射日期:
2022-10-28 UTC
国别 :
美国 (US)
星等 :
--
轨道信息
数据来源 国际轨道数据 AOE轨道数据
星历时间 2026-09-04T10:13:09+0800
13小时前
查看轨道信息
2026-08-30T02:00:00+0800
5天前
查看轨道信息
半长轴 6848.808km 6848.856km
偏心率 0.0000868 0.000123
轨道倾角 53.159° 53.157°
近地点辐角 67.868° 75.474°
升交点赤经 266.159° 291.031°
平近点角 292.241° 329.032°
近地点 470.076km 469.876km
远地点 471.266km 471.562km
周期 94.012分钟 94.013分钟
每日圈数 15.317234 15.317073
详细信息
固有亮度:
5
最大亮度:
2.5
卫星平台:
Starlink v1.5
覆盖范围:
全球
运营商:
太空探索技术公司
运营商所在国:
美国
制造商(研发单位):
太空探索技术公司
制造商所在国:
美国
使用方式:
暂无
卫星简介
星链(Starlink)计划是由太空探索技术公司(SpaceX)提出的一个巨型低轨卫星互联网星座项目,计划在2019年至2024年间在太空搭建由约1.2万颗卫星组成的“星链”网络,其中1584颗将部署在地球上空550千米处的近地轨道,并从2020年开始工作。该卫星仍在工作。
2D轨道图
3D轨道图
轨道高度分析图
轨道倾角分析图
轨道综合分析图
查看轨道综合分析图
交会数据列表
事件ID 空间交会对象 最接近时刻(TCA) 交会距离 交会风险概率(CRP) 交会风险指数(CRI) 操作
CDM_260906-224104-838805-420521
2026-09-06T
22:41:20+0000
0.418 km
远距离
1.315659E-4 高风险 0.77
CDM_260905-021405-420506-403621
2026-09-05T
02:14:59+0000
0.825 km
远距离
4.379887E-5 中风险 0.68
CDM_260905-221805-420506-387121
2026-09-05T
22:18:49+0000
0.871 km
远距离
3.642942E-5 中风险 0.66
CDM_260906-132405-420506-875622
2026-09-06T
13:24:46+0000
1.157 km
极远距离
1.522235E-5 中风险 0.59
CDM_260907-001504-838805-420521
2026-09-07T
00:15:17+0000
1.081 km
极远距离
7.30209E-6 低风险 0.52
CDM_260906-210704-838805-420521
2026-09-06T
21:07:22+0000
1.268 km
极远距离
4.252499E-6 低风险 0.48
CDM_260905-004105-420506-403621
2026-09-05T
00:41:00+0000
1.682 km
极远距离
3.989307E-6 低风险 0.47
CDM_260906-030105-420506-538221
2026-09-06T
03:01:25+0000
2.690 km
极远距离
1.508206E-6 低风险 0.39
CDM_260907-014904-838805-420521
2026-09-07T
01:49:15+0000
2.155 km
极远距离
9.751143E-7 极低风险 0.35
CDM_260906-193304-838805-420521
2026-09-06T
19:33:25+0000
2.326 km
极远距离
8.416939E-7 极低风险 0.34